Location: La Chapelle
(48.3135°N, 1.3085°W)
Time: 02:23:10
(UTC+00:00)

FALCON 9 DEB - Pass Details

Date: 03 March 2021
Orbit: 366 x 384 km, 53.0° (Epoch: 17 April)

Event Time Altitude Azimuth Distance (km) Brightness Sun altitude
Rises 19:48:53 0° 292° (WNW) 2,294 8.3 -20.0°
Reaches altitude 10° 19:51:02 10° 300° (WNW) 1,435 6.8 -20.4°
Enters shadow 19:53:45 39° 354° (N) 603 3.9 -20.8°
